Location: Deuil
(48.9767°N, 2.3272°E)
Time: 12:55:45
(UTC+00:00)

Okean O Rocket - Pass Details

Date: 24 October 2021
Orbit: 623 x 643 km, 98.2° (Epoch: 05 December)

Event Time Altitude Azimuth Distance (km) Brightness Sun altitude
Rises 19:12:30 0° 207° (SSW) 2,895 5.2 -25.0°
Reaches altitude 10° 19:15:21 10° 228° (SW) 1,996 4.6 -25.5°
Maximum altitude 19:18:13 17° 269° (W) 1,586 4.5 -25.9°
Drops below altitude 10° 19:21:06 10° 311° (NW) 2,013 5.0 -26.4°
Sets 19:24:01 0° 332° (NNW) 2,930 5.6 -26.9°
